Regional Weather Roundup
Issued by NWS

Home | Current Version | Previous Version | Graphics & Text | Print | Product List | Glossary On
Versions: 1 2 3 4 5 6 7 8 9 10 11 12 13 14 15 16 17 18 19 20 21 22 23 24 25 26 27 28 29 30 31 32 33 34 35 36 37 38 39 40 41 42 43 44 45 46 47 48 49 50
000
ASUS43 KFSD 292002
RWRSD

WEATHER ROUNDUP FOR SOUTH DAKOTA
NATIONAL WEATHER SERVICE SIOUX FALLS SD
300 PM CDT THU SEP 29 2016

NOTE: "FAIR" INDICATES FEW OR NO CLOUDS BELOW 12,000 FEET WITH NO
SIGNIFICANT WEATHER AND/OR OBSTRUCTIONS TO VISIBILITY.


SDZ001>005-009-010-012>017-292100-
NORTHWEST AND NORTH CENTRAL SOUTH DAKOTA

CITY           SKY/WX    TMP DP  RH WIND       PRES   REMARKS
BUFFALO          N/A     79  43  27 SE24G33   30.12F
FAITH            N/A     76  42  29 SE21      30.23F
MOBRIDGE       SUNNY     72  41  32 SE20      30.29F
$$

SDZ012>016-024>037-041>051-057-063-072>074-292100-
SOUTHWEST AND SOUTH CENTRAL SOUTH DAKOTA

CITY           SKY/WX    TMP DP  RH WIND       PRES   REMARKS
RAPID CTY ARPT SUNNY     77  43  29 SE15G23   30.22F
PIERRE         SUNNY     72  43  35 SE20G26   30.29F
CUSTER         SUNNY     69  41  36 S10G18    30.33F
ELLSWORTH AFB  SUNNY     78  45  31 S20G29    30.21F
PHILIP         SUNNY     79  43  27 SE15G24   30.23F
PINE RIDGE     SUNNY     81  42  25 S13       30.24F
WINNER         FAIR      73  44  35 S15       30.33F
$$

SDZ004>011-016>023-039-040-292100-
NORTHEAST SOUTH DAKOTA

CITY           SKY/WX    TMP DP  RH WIND       PRES   REMARKS
ABERDEEN       SUNNY     69  46  43 SE12G21   30.38F
WATERTOWN      SUNNY     65  47  52 SE9       30.41F
SISSETON         N/A     67  45  45 S6        30.41F
$$

SDZ017-020-022-023-036>040-048>070-292100-
SOUTHEAST SOUTH DAKOTA

CITY           SKY/WX    TMP DP  RH WIND       PRES   REMARKS
SIOUX FALLS    MOSUNNY   67  48  50 E6        30.40F
HURON          SUNNY     68  47  46 S13       30.38F
CHAMBERLAIN    SUNNY     71  45  39 SE13G20   30.35F
MITCHELL       SUNNY     69  47  45 S14       30.39F
YANKTON        SUNNY     66  48  52 E7        30.37F
$$

ABBREVIATIONS USED IN REMARKS
   TC - TEMPERATURE IN CELSIUS
  WCI - WIND CHILL INDEX
   HX - HEAT INDEX
  VSB - VISIBILITY





USA.gov is the U.S. government's official web portal to all federal, state and local government web resources and services.